Terminal Aerodrome Forecast
Issued by NWS North Platte, NE

Home | Current Version | Previous Version | Text Only | Print | Product List | Glossary Off
Versions: 1 2 3 4 5 6 7 8 9 10 11 12 13 14 15 16 17 18 19 20 21 22

000
FTUS43 KLBF 271300 AAA
TAFVTN
TAF AMD
KVTN 271342Z 2714/2812 14006KT P6SM BKN008
     FM271900 11009KT 5SM SHRA SCT015 OVC025
     FM280600 08006KT P6SM SCT015 OVC025=

USA.gov is the U.S. government's official web portal to all federal, state and local government web resources and services.